Change the Weather History Date:

Friday, February 8, 2013

  Actual Average Record
Temperature  
Mean Temperature 20 °F -  
Max Temperature 23 °F 35 °F 50 °F (1951)
Min Temperature 17 °F 17 °F -10 °F (1967)
Degree Days  
Heating Degree Days 45    
Cooling Degree Days 0    
Moisture  
Dew Point 12 °F    
Average Humidity 75    
Maximum Humidity 86    
Minimum Humidity 32    
Precipitation  
Precipitation 0.09 in - 1.64 in (1951)
Month to date precipitation  
Year to date precipitation  
Snow  
Snow 0.00 in - - ()
Month to date snowfall  
Since 1 July snowfall  
Snow Depth 3.00 in    
Sea Level Pressure  
Sea Level Pressure 30.19 in    
Wind  
Wind Speed 11 mph (NNE)    
Max Wind Speed 23 mph    
Max Gust Speed 36 mph    
Visibility 4 miles    
Events Fog , Snow    
T = Trace of Precipitation, MM = Missing Value Source: NWS Daily Summary

Daily Weather History Graph

Daily Weather History Graph

Search for Another Location

Airport or City:

Trip Planner

Search our weather history database for the weather conditions in past years. The results will help you decide how hot, cold, wet, or windy it might be!

Date:

Astronomy

Feb. 08, 2013 Rise Set
Actual Time 6:52 AM EST 5:08 PM EST
Civil Twilight 6:22 AM EST 5:37 PM EST
Nautical Twilight 5:49 AM EST 6:11 PM EST
Astronomical Twilight 5:16 AM EST 6:44 PM EST
Moon 5:19 AM EST (2/8) 3:37 PM EST (2/8)
Length of Visible Light 11h 15m
Length of Day
10h 16m
Waning Crescent, 3% of the Moon is Illuminated
Feb 8
Waning Crescent
Feb 10
New
Feb 17
First Quarter
Feb 25
Full
Mar 4
Last Quarter

Hourly Weather History & Observations

Time (EST) Temp. Windchill Dew Point Humidity Pressure Visibility Wind Dir Wind Speed Gust Speed Precip Events Conditions
12:53 AM 23.0 °F 15.8 °F -2.9 °F 32% 30.53 in 10.0 mi NE 5.8 mph - N/A   Overcast
1:53 AM 21.9 °F 14.5 °F -0.0 °F 38% 30.50 in 10.0 mi ENE 5.8 mph - N/A   Mostly Cloudy
2:53 AM 21.9 °F 13.4 °F 6.1 °F 51% 30.47 in 10.0 mi NE 6.9 mph - N/A   Overcast
3:53 AM 21.0 °F 11.4 °F 7.0 °F 55% 30.44 in 10.0 mi NE 8.1 mph - N/A   Overcast
4:53 AM 19.9 °F 10.1 °F 10.9 °F 68% 30.44 in 10.0 mi ENE 8.1 mph - 0.00 in Snow Light Snow
5:53 AM 19.0 °F 8.2 °F 12.9 °F 77% 30.42 in 4.0 mi NE 9.2 mph - 0.00 in Snow Light Snow
6:53 AM 18.0 °F 7.7 °F 12.0 °F 78% 30.42 in 4.0 mi NE 8.1 mph - 0.00 in Snow Light Snow
7:53 AM 18.0 °F 9.8 °F 12.9 °F 81% 30.41 in 6.0 mi NNE 5.8 mph - 0.01 in Snow Light Snow
8:53 AM 18.0 °F 6.9 °F 12.0 °F 78% 30.40 in 6.0 mi NE 9.2 mph - 0.00 in Snow Light Snow
9:53 AM 18.0 °F 5.4 °F 12.0 °F 78% 30.38 in 7.0 mi NE 11.5 mph - 0.00 in Snow Light Snow
10:36 AM 17.6 °F 3.2 °F 12.2 °F 79% 30.30 in 7.0 mi NNE 15.0 mph - 0.00 in Snow Light Snow
10:46 AM 17.6 °F 6.4 °F 12.2 °F 79% 30.30 in 6.0 mi NE 9.2 mph - 0.00 in Snow Light Snow
10:53 AM 18.0 °F 3.6 °F 12.0 °F 78% 30.36 in 6.0 mi NE 15.0 mph 18.4 mph 0.00 in Snow Light Snow
11:17 AM 19.4 °F 7.9 °F 12.2 °F 74% 30.27 in 4.0 mi NE 10.4 mph - 0.00 in Snow Light Snow
11:53 AM 19.0 °F 5.6 °F 12.9 °F 77% 30.31 in 3.0 mi NNE 13.8 mph - 0.00 in Snow Light Snow
12:00 PM 19.4 °F 6.0 °F 12.2 °F 74% 30.24 in 3.0 mi NNE 13.8 mph - 0.00 in Snow Light Snow
12:53 PM 19.9 °F 8.6 °F 12.9 °F 74% 30.26 in 5.0 mi NNE 10.4 mph 21.9 mph 0.00 in Snow Light Snow
1:53 PM 19.9 °F 5.2 °F 12.9 °F 74% 30.21 in 7.0 mi NNE 17.3 mph 25.3 mph 0.00 in Snow Light Snow
2:02 PM 19.4 °F 5.0 °F 12.2 °F 74% 30.14 in 1.5 mi NE 16.1 mph 23.0 mph 0.00 in Snow Light Snow
2:09 PM 19.4 °F 5.5 °F 14.0 °F 80% 30.14 in 0.8 mi NNE 15.0 mph 24.2 mph 0.00 in Snow Light Snow
2:24 PM 19.4 °F 6.6 °F 15.8 °F 86% 30.13 in 0.5 mi NNE 12.7 mph - 0.00 in Fog , Snow Snow
2:53 PM 19.9 °F 9.3 °F 15.1 °F 81% 30.17 in 0.5 mi NNE 9.2 mph 19.6 mph 0.00 in Snow Snow
3:53 PM 19.0 °F 6.1 °F 15.1 °F 85% 30.14 in 0.5 mi NNE 12.7 mph 21.9 mph 0.01 in Fog , Snow Snow
4:53 PM 19.0 °F 4.5 °F 15.1 °F 85% 30.09 in 0.5 mi North 16.1 mph 21.9 mph 0.01 in Fog , Snow Snow
5:14 PM 17.6 °F 3.2 °F 14.0 °F 86% 30.01 in 0.5 mi NNE 15.0 mph - 0.00 in Fog , Snow Snow
5:53 PM 19.0 °F 5.6 °F 14.0 °F 81% 30.05 in 0.5 mi NNE 13.8 mph 23.0 mph 0.00 in Snow Snow
6:53 PM 19.0 °F 4.0 °F 15.1 °F 85% 30.02 in 0.5 mi NNE 17.3 mph 23.0 mph 0.01 in Fog , Snow Snow
7:53 PM 19.4 °F 4.5 °F 15.1 °F 83% 29.96 in 0.8 mi NNE 17.3 mph 31.1 mph 0.01 in Snow Light Snow
8:53 PM 18.0 °F 0.6 °F 14.0 °F 84% 29.93 in 0.5 mi NNE 23.0 mph 33.4 mph 0.00 in Fog , Snow Snow
9:53 PM 17.1 °F 0.6 °F 12.9 °F 84% 29.89 in 0.5 mi North 19.6 mph 29.9 mph 0.01 in Fog , Snow Snow
10:17 PM 17.6 °F 0.5 °F 12.2 °F 79% 29.80 in 0.2 mi North 21.9 mph 32.2 mph 0.01 in Fog , Snow Snow
10:53 PM 17.1 °F -0.3 °F 12.9 °F 84% 29.83 in 0.2 mi NNE 21.9 mph 31.1 mph 0.02 in Fog , Snow Snow
11:24 PM 17.6 °F 0.9 °F 12.2 °F 79% 29.75 in 0.5 mi North 20.7 mph 28.8 mph 0.01 in Fog , Snow Snow
11:53 PM 17.1 °F -0.6 °F 12.0 °F 81% 29.79 in 0.8 mi NNE 23.0 mph 35.7 mph 0.01 in Fog , Snow Light Snow